Location: Unspecified
(0.0000°N, 0.0000°E)
Time: 03:04:59
(UTC+00:00)

Dynamics Explorer 1 - Visible Passes

Search period start: 23 October 2018 00:00
Search period end: 02 November 2018 00:00
Orbit: 529 x 23189 km, 90.2° (Epoch: 21 October)

Date Brightness Start Highest point End Pass type
(mag) Time Alt. Az. Time Alt. Az. Time Alt. Az.
24 Oct 10.2 00:35:46 10° S 00:56:16 31° SSW 00:56:16 31° SSW visible
26 Oct 10.2 00:16:05 10° S 00:36:16 32° SSW 00:36:16 32° SSW visible
27 Oct 10.1 23:56:34 10° S 00:16:17 34° SSW 00:16:17 34° SSW visible
29 Oct 10.1 23:37:10 10° S 23:56:20 34° S 23:56:20 34° S visible
31 Oct 10.0 23:17:55 10° S 23:36:24 35° S 23:36:24 35° S visible
